Tracking 19283 objects as of 17-Nov-2018
HD Live streaming from Space Station
objects crossing your sky now

COSMOS 1633

Track COSMOS 1633 now!
10-day predictions
COSMOS 1633 is classified as:


NORAD ID: 15592
Int'l Code: 1985-020A
Perigee: 473.6 km
Apogee: 492.9 km
Inclination: 82.5 °
Period: 94.1 minutes
Semi major axis: 6854 km
RCS: 7.2924 m2 (large)
Launch date: March 5, 1985
Source: Commonwealth of Independent States (former USSR) (CIS)
Launch site: PLESETSK MISSILE AND SPACE COMPLEX (PKMTR)
aabbcc
Your satellite tracking list
Your tracking list is empty




NASA's NSSDC Master Catalog

Two Line Element Set (TLE):
1 15592U 85020A   18321.02545284  .00001177  00000-0  39297-4 0  9992
2 15592  82.5367 159.8731 0014142 138.5663 221.6652 15.29898637843437
Source of the keplerian elements: AFSPC